KZR105 UAAA-UZTT

Flight info

Callsign KZR105
Flight time N/A
Altitude 36000
Route LAKEL1F LAKEL L135 MAMIR P984 TISIB TISIB2M
Aircraft A21N/M-SDE3FGHIRWY/LB1

Departure

Time 2026-04-28 19:43
Airport Almaty International Airport (UAAA)

Arrival

Time N/A
Airport Tashkent International Airport (UZTT)
Time Latitude Longitude Altitude Speed Heading
2026-04-28 19:15 43.34845 77.01395 2217 ft 0 kts 246°
2026-04-28 19:27 43.34847 77.01404 2217 ft 2 kts 246°
2026-04-28 19:28 43.34853 77.01422 2217 ft 2 kts 246°
2026-04-28 19:28 43.34860 77.01442 2217 ft 2 kts 246°
2026-04-28 19:28 43.34864 77.01454 2217 ft 2 kts 247°
2026-04-28 19:28 43.34872 77.01471 2217 ft 2 kts 218°
2026-04-28 19:29 43.34885 77.01482 2216 ft 2 kts 197°
2026-04-28 19:29 43.34895 77.01484 2216 ft 2 kts 181°
2026-04-28 19:29 43.34910 77.01481 2216 ft 0 kts 158°
2026-04-28 19:29 43.34917 77.01477 2216 ft 0 kts 155°
2026-04-28 19:32 43.34912 77.01480 2216 ft 2 kts 155°
2026-04-28 19:33 43.34888 77.01495 2216 ft 5 kts 155°
2026-04-28 19:33 43.34846 77.01519 2217 ft 7 kts 155°
2026-04-28 19:33 43.34816 77.01590 2218 ft 10 kts 99°
2026-04-28 19:33 43.34810 77.01709 2218 ft 14 kts 94°
2026-04-28 19:34 43.34803 77.01861 2218 ft 17 kts 93°
2026-04-28 19:34 43.34796 77.02036 2218 ft 20 kts 93°
2026-04-28 19:34 43.34787 77.02196 2219 ft 17 kts 93°
2026-04-28 19:34 43.34781 77.02367 2222 ft 18 kts 93°
2026-04-28 19:35 43.34773 77.02521 2222 ft 16 kts 94°
2026-04-28 19:35 43.34812 77.02677 2222 ft 19 kts 55°
2026-04-28 19:35 43.34892 77.02839 2220 ft 20 kts 56°
2026-04-28 19:35 43.34973 77.03005 2219 ft 21 kts 55°
2026-04-28 19:36 43.35057 77.03171 2220 ft 20 kts 56°
2026-04-28 19:36 43.35139 77.03337 2221 ft 20 kts 54°
2026-04-28 19:36 43.35215 77.03490 2223 ft 19 kts 56°
2026-04-28 19:36 43.35291 77.03644 2225 ft 19 kts 56°
2026-04-28 19:37 43.35368 77.03799 2226 ft 19 kts 55°
2026-04-28 19:37 43.35420 77.03902 2226 ft 20 kts 55°
2026-04-28 19:37 43.35529 77.04118 2227 ft 21 kts 56°
2026-04-28 19:37 43.35610 77.04283 2229 ft 20 kts 56°
2026-04-28 19:38 43.35692 77.04450 2230 ft 21 kts 56°
2026-04-28 19:38 43.35776 77.04621 2230 ft 21 kts 56°
2026-04-28 19:38 43.35861 77.04793 2231 ft 22 kts 56°
2026-04-28 19:38 43.35950 77.04969 2232 ft 22 kts 55°
2026-04-28 19:39 43.36042 77.05150 2230 ft 23 kts 55°
2026-04-28 19:39 43.36129 77.05327 2232 ft 21 kts 57°
2026-04-28 19:39 43.36212 77.05501 2234 ft 21 kts 57°
2026-04-28 19:39 43.36298 77.05681 2232 ft 22 kts 57°
2026-04-28 19:40 43.36387 77.05859 2234 ft 22 kts 55°
2026-04-28 19:40 43.36470 77.06024 2236 ft 12 kts 56°
2026-04-28 19:40 43.36496 77.06125 2237 ft 10 kts 111°
2026-04-28 19:40 43.36474 77.06158 2238 ft 0 kts 146°
2026-04-28 19:41 43.36467 77.06164 2238 ft 2 kts 146°
2026-04-28 19:42 43.36434 77.06193 2239 ft 8 kts 154°
2026-04-28 19:42 43.36366 77.06199 2241 ft 9 kts 184°
2026-04-28 19:42 43.36312 77.06168 2242 ft 7 kts 234°
2026-04-28 19:42 43.36290 77.06121 2241 ft 13 kts 236°
2026-04-28 19:43 43.35956 77.05446 2236 ft 112 kts 235°
2026-04-28 19:43 43.35399 77.04322 2236 ft 169 kts 236°
2026-04-28 19:43 43.34710 77.02913 2678 ft 181 kts 235°
2026-04-28 19:43 43.34006 77.01469 3330 ft 186 kts 236°
2026-04-28 19:44 43.33293 76.99971 4033 ft 189 kts 236°
2026-04-28 19:44 43.32473 76.98542 4549 ft 195 kts 221°
2026-04-28 19:44 43.31300 76.97569 4982 ft 202 kts 199°
2026-04-28 19:44 43.29922 76.96932 5336 ft 216 kts 197°
2026-04-28 19:45 43.28462 76.96255 5722 ft 230 kts 198°
2026-04-28 19:45 43.26919 76.95399 6035 ft 249 kts 206°
2026-04-28 19:45 43.25339 76.94269 6442 ft 264 kts 207°
2026-04-28 19:45 43.23666 76.93093 6869 ft 279 kts 207°
2026-04-28 19:46 43.21908 76.91820 7386 ft 290 kts 208°
2026-04-28 19:46 43.20158 76.90496 8313 ft 284 kts 209°
2026-04-28 19:46 43.18513 76.89012 8984 ft 288 kts 216°
2026-04-28 19:46 43.16889 76.87360 9688 ft 292 kts 216°
2026-04-28 19:47 43.15255 76.85718 10414 ft 295 kts 216°
2026-04-28 19:47 43.13584 76.84034 10941 ft 305 kts 216°
2026-04-28 19:47 43.11842 76.82269 11329 ft 319 kts 217°
2026-04-28 19:47 43.10012 76.80410 11962 ft 325 kts 217°
2026-04-28 19:48 43.08216 76.78583 12681 ft 327 kts 217°
2026-04-28 19:48 43.06368 76.76701 13369 ft 330 kts 217°
2026-04-28 19:48 43.04520 76.74822 14003 ft 334 kts 218°
2026-04-28 19:48 43.02656 76.72925 14640 ft 337 kts 218°
2026-04-28 19:49 43.00779 76.71016 15250 ft 339 kts 218°
2026-04-28 19:49 42.98883 76.69089 15831 ft 342 kts 218°
2026-04-28 19:49 42.96955 76.67136 16395 ft 345 kts 218°
2026-04-28 19:49 42.95036 76.65189 16951 ft 347 kts 218°
2026-04-28 19:50 42.91347 76.60886 17981 ft 350 kts 233°
2026-04-28 19:50 42.90014 76.58139 18506 ft 350 kts 244°
2026-04-28 19:50 42.88965 76.55127 19035 ft 352 kts 248°
2026-04-28 19:51 42.87955 76.52059 19549 ft 354 kts 248°
2026-04-28 19:51 42.86951 76.48994 20042 ft 356 kts 248°
2026-04-28 19:51 42.85934 76.45916 20551 ft 358 kts 248°
2026-04-28 19:51 42.84911 76.42834 21032 ft 360 kts 248°
2026-04-28 19:52 42.83861 76.39692 21476 ft 363 kts 248°
2026-04-28 19:52 42.82807 76.36545 21923 ft 366 kts 248°
2026-04-28 19:52 42.81743 76.33378 22384 ft 368 kts 247°
2026-04-28 19:52 42.80669 76.30191 22837 ft 370 kts 248°
2026-04-28 19:53 42.79595 76.27008 23261 ft 373 kts 248°
2026-04-28 19:53 42.78505 76.23779 23682 ft 376 kts 248°
2026-04-28 19:53 42.77416 76.20557 24134 ft 377 kts 248°
2026-04-28 19:53 42.76303 76.17273 24603 ft 378 kts 248°
2026-04-28 19:54 42.75219 76.14076 25036 ft 379 kts 247°
2026-04-28 19:54 42.74099 76.10773 25451 ft 380 kts 247°
2026-04-28 19:54 42.72988 76.07507 25851 ft 381 kts 247°
2026-04-28 19:54 42.71870 76.04221 26238 ft 383 kts 247°
2026-04-28 19:55 42.70757 76.00960 26629 ft 384 kts 247°
2026-04-28 19:55 42.69620 75.97630 27050 ft 384 kts 247°
2026-04-28 19:55 42.68496 75.94345 27423 ft 385 kts 247°
2026-04-28 19:55 42.67369 75.91046 27788 ft 386 kts 247°
2026-04-28 19:56 42.66230 75.87714 28143 ft 388 kts 246°
2026-04-28 19:56 42.65096 75.84410 28495 ft 389 kts 246°
2026-04-28 19:56 42.63942 75.81048 28847 ft 390 kts 246°
2026-04-28 19:56 42.62799 75.77721 29195 ft 391 kts 246°
2026-04-28 19:57 42.61652 75.74391 29562 ft 391 kts 246°
2026-04-28 19:57 42.60482 75.70995 29910 ft 392 kts 246°
2026-04-28 19:57 42.59334 75.67664 30257 ft 393 kts 246°
2026-04-28 19:57 42.58176 75.64314 30589 ft 394 kts 246°
2026-04-28 19:58 42.57015 75.60960 30902 ft 395 kts 246°
2026-04-28 19:58 42.55839 75.57561 31215 ft 396 kts 246°
2026-04-28 19:58 42.54665 75.54176 31495 ft 398 kts 246°
2026-04-28 19:58 42.53492 75.50799 31784 ft 399 kts 246°
2026-04-28 19:59 42.52306 75.47385 32072 ft 400 kts 246°
2026-04-28 19:59 42.51121 75.43983 32357 ft 401 kts 246°
2026-04-28 19:59 42.50732 75.42866 32451 ft 402 kts 246°
2026-04-28 19:59 42.48732 75.37127 32902 ft 404 kts 246°
2026-04-28 20:00 42.47529 75.33687 33139 ft 405 kts 245°
2026-04-28 20:00 42.46323 75.30238 33429 ft 406 kts 245°
2026-04-28 20:00 42.45106 75.26765 33823 ft 404 kts 245°
2026-04-28 20:00 42.43896 75.23309 34229 ft 401 kts 246°
2026-04-28 20:01 42.42776 75.19867 34509 ft 400 kts 249°
2026-04-28 20:01 42.41785 75.16334 34738 ft 400 kts 251°
2026-04-28 20:01 42.40875 75.12788 34964 ft 400 kts 251°
2026-04-28 20:01 42.39966 75.09248 35140 ft 402 kts 251°
2026-04-28 20:02 42.39046 75.05661 35307 ft 403 kts 251°
2026-04-28 20:02 42.38121 75.02066 35499 ft 404 kts 251°
2026-04-28 20:02 42.37192 74.98458 35687 ft 405 kts 251°
2026-04-28 20:02 42.36271 74.94880 35879 ft 406 kts 251°
2026-04-28 20:03 42.35333 74.91258 36078 ft 406 kts 252°
2026-04-28 20:03 42.34404 74.87664 36271 ft 407 kts 252°
2026-04-28 20:03 42.33469 74.84049 36326 ft 409 kts 252°
2026-04-28 20:04 42.31595 74.76826 36333 ft 408 kts 252°
2026-04-28 20:04 42.29700 74.69548 36354 ft 408 kts 252°
2026-04-28 20:05 42.27806 74.62295 36342 ft 408 kts 252°
2026-04-28 20:05 42.25925 74.55112 36337 ft 407 kts 252°
2026-04-28 20:06 42.24034 74.47914 36336 ft 408 kts 252°
2026-04-28 20:06 42.22128 74.40680 36330 ft 409 kts 251°
2026-04-28 20:07 42.20212 74.33427 36333 ft 409 kts 251°
2026-04-28 20:07 42.18303 74.26235 36344 ft 410 kts 251°
2026-04-28 20:08 42.16378 74.18993 36345 ft 410 kts 251°
2026-04-28 20:08 42.14447 74.11747 36352 ft 409 kts 251°
2026-04-28 20:09 42.12512 74.04511 36341 ft 410 kts 250°
2026-04-28 20:09 42.10575 73.97289 36350 ft 409 kts 250°
2026-04-28 20:10 42.09280 73.92480 36340 ft 409 kts 250°